Wind_Speed
12 11 9 6 4 3 3 3 2 1 4 6 7 8 8 9 10 9 8 8 9 10 10 10 10 10 9 9 9 8 7 7 7 7 7 7 7 7 7 7 7 6 6 6
11 9 8 7 6 5 5 4 3 3 6 7 8 8 8 8 10 8 7 8 8 9 9 10 10 9 9 8 9 8 7 6 6 6 6 6 6 6 7 7 7 7 7 6
10 9 10 9 8 7 7 5 5 5 6 8 9 9 10 10 8 7 6 7 8 8 8 9 9 9 9 8 8 8 7 6 6 6 7 7 7 6 6 7 6 6 6 6
11 10 10 9 8 8 7 5 6 6 7 7 8 9 9 9 7 6 5 6 7 8 8 9 8 8 9 9 8 8 7 6 6 6 7 7 7 7 7 7 6 5 6 6
11 10 10 9 8 8 8 7 7 7 7 7 8 8 7 8 7 6 6 6 7 8 9 10 10 10 9 9 8 8 8 7 7 7 7 8 7 7 8 7 6 6 6 6
11 10 10 8 7 8 9 9 9 8 8 8 7 7 5 6 7 8 6 6 7 8 9 10 10 10 9 9 9 8 8 8 8 8 8 8 8 8 8 7 7 7 7 8
12 11 10 8 8 8 9 9 10 9 8 8 7 7 6 6 6 8 7 7 7 8 8 9 9 9 9 9 9 9 9 9 9 9 9 9 9 8 8 8 7 8 8 9
12 11 10 9 9 8 8 9 11 11 9 8 8 8 7 6 7 8 7 7 7 8 9 9 9 10 10 10 9 9 10 10 10 10 10 10 10 9 9 9 9 9 10 11
14 12 11 10 9 9 10 9 10 10 10 10 9 9 8 7 8 8 9 10 10 10 10 10 10 11 10 11 11 10 11 11 11 11 11 11 10 10 10 11 11 11 12 12
15 14 12 11 12 11 10 11 11 11 11 11 10 10 9 10 9 9 11 11 12 12 12 12 11 11 11 11 12 12 12 12 12 12 12 12 11 11 12 12 12 13 13 14
15 14 14 15 15 13 13 12 13 13 14 13 13 13 12 13 13 12 12 12 12 12 12 13 13 13 13 12 12 13 13 13 14 14 14 14 13 13 13 14 14 14 15 16
17 17 16 17 16 15 15 15 15 15 14 14 16 16 15 15 14 14 14 14 13 13 14 14 15 14 15 14 14 15 15 15 15 15 15 15 14 14 14 15 15 15 16 16
20 20 19 19 20 20 19 18 17 18 17 16 17 17 16 16 16 16 17 16 15 14 15 16 17 17 18 17 17 16 17 17 16 16 16 16 16 16 16 17 16 16 17 17
23 22 21 21 22 23 23 22 21 20 19 19 19 20 19 18 18 19 20 20 19 18 18 18 19 19 19 19 18 18 18 18 17 17 17 17 17 17 18 18 18 18 18 19
26 25 24 23 23 24 25 24 22 23 22 22 22 22 21 20 21 21 21 22 21 20 20 20 20 19 19 19 19 19 19 19 18 18 18 19 19 19 19 19 19 19 20 21
28 27 26 25 25 25 25 24 23 24 24 24 24 23 22 23 22 23 23 22 21 21 21 20 20 19 19 20 20 19 19 19 20 20 19 20 20 21 21 21 21 21 22 23
28 28 28 27 26 26 26 25 25 25 25 24 25 24 24 24 24 24 24 23 22 22 22 22 21 21 21 22 21 21 21 21 21 20 21 21 22 22 22 23 23 23 24 24
28 29 29 27 26 28 26 26 28 28 27 26 26 26 26 25 26 25 25 24 24 22 23 23 23 23 23 23 23 23 23 22 22 22 23 23 23 24 24 24 25 25 25 26
29 29 30 29 28 27 26 26 27 28 28 28 27 27 27 26 26 27 26 26 26 24 23 24 24 24 24 24 24 24 24 24 24 24 25 25 25 25 26 26 27 27 27 27
30 31 31 30 30 29 26 26 27 28 30 29 29 28 27 26 27 27 28 27 27 26 26 26 25 26 26 26 25 25 25 25 26 26 27 27 26 27 27 27 27 27 28 29
30 31 32 32 31 30 29 27 27 29 30 29 28 28 28 28 28 28 28 28 27 27 27 27 27 28 27 27 26 26 26 26 27 28 28 28 27 27 27 28 28 29 29 30
30 31 33 33 34 33 30 29 30 30 30 29 28 28 28 28 28 28 29 28 28 28 28 28 28 28 28 28 27 26 27 27 28 28 28 28 28 28 28 29 29 30 30 31
30 31 32 34 34 33 31 30 31 31 31 30 29 28 29 30 30 30 30 30 30 30 30 30 30 29 29 28 28 27 28 29 29 29 28 28 29 29 29 30 30 30 31 31
30 31 32 33 35 34 33 32 31 31 31 31 31 31 31 32 31 32 32 32 32 32 32 32 31 30 30 30 30 30 30 30 29 30 30 30 30 30 30 30 31 31 31 32
31 31 32 33 33 34 34 33 32 31 31 32 32 32 33 33 33 33 32 32 32 32 32 31 31 31 31 31 30 30 29 30 30 30 30 30 30 30 31 31 31 32 31 31
31 31 32 34 34 35 34 33 32 31 31 32 33 33 34 33 33 33 32 31 31 31 32 31 31 31 32 31 30 30 30 30 30 31 30 30 31 31 31 31 32 32 32 32
Wind_Direction
211 213 205 199 201 222 234 220 228 324 320 318 327 335 339 342 345 351 2 10 16 15 18 21 19 18 16 16 17 13 13 12 16 21 24 23 19 17 21 23 23 20 29 34
212 207 204 209 216 222 241 238 245 291 303 303 316 317 322 331 340 351 357 3 9 11 15 16 15 13 10 9 8 6 3 4 5 8 14 14 15 16 15 16 15 13 19 27
216 206 209 212 219 229 235 237 253 274 285 296 304 308 318 325 329 342 345 351 359 2 6 4 4 2 358 359 0 358 358 4 6 3 3 2 1 4 8 8 5 2 8 12
215 212 215 220 227 232 231 238 246 268 277 296 303 304 313 322 318 322 330 339 356 356 355 351 346 351 349 349 350 348 347 351 353 352 352 348 347 347 350 353 354 353 353 354
223 216 218 222 226 234 234 239 244 259 274 276 290 293 304 313 317 316 321 333 341 350 349 347 342 340 341 340 338 337 334 331 333 338 339 338 338 337 336 337 333 333 334 335
225 221 219 224 225 232 232 237 247 251 266 280 289 295 309 306 313 317 328 339 345 349 349 345 341 339 339 337 333 332 331 331 332 332 333 333 330 326 325 323 322 326 325 324
220 222 222 224 225 228 234 238 245 253 270 285 279 283 299 302 312 319 327 332 333 336 340 338 334 333 331 331 329 327 327 328 328 326 326 328 326 321 319 315 310 311 311 313
223 222 225 225 225 231 235 246 251 254 268 278 277 279 285 296 309 317 320 322 320 326 332 328 323 321 322 323 323 322 321 318 317 318 320 319 320 318 314 310 304 300 301 304
231 225 221 221 222 232 233 245 262 267 272 272 274 283 280 292 299 309 310 313 314 319 323 323 323 320 321 320 318 314 315 313 313 313 314 314 312 311 309 305 303 302 302 302
232 230 219 221 223 227 236 248 255 259 262 270 271 279 286 293 298 311 313 307 314 319 320 317 321 319 317 316 315 315 313 311 311 312 311 308 306 307 304 302 302 303 303 300
233 235 226 224 224 230 233 246 255 259 259 266 270 274 282 293 296 298 302 302 310 316 318 317 315 313 311 308 309 310 309 309 308 308 308 307 305 304 303 301 299 299 299 299
237 239 234 226 228 231 237 243 253 258 258 265 269 273 276 286 292 295 296 296 305 313 315 316 312 311 308 303 302 304 304 303 303 304 305 306 304 303 302 301 300 298 297 297
238 240 239 230 227 232 236 239 248 253 259 265 269 271 274 283 288 292 296 296 301 306 308 308 307 306 303 300 298 299 299 299 299 300 301 301 302 301 301 301 300 298 297 296
243 244 242 237 232 235 239 242 247 251 255 260 268 272 274 283 286 291 294 296 298 301 302 301 302 303 300 298 296 295 296 297 297 298 298 297 297 298 299 299 298 297 295 294
245 245 244 242 238 238 241 243 244 248 253 258 264 269 273 277 282 286 290 294 299 300 301 299 299 298 297 296 294 293 294 295 295 296 296 296 295 296 297 297 297 296 295 294
247 247 246 244 241 240 242 242 243 245 249 255 261 267 273 277 281 285 289 294 297 299 299 297 297 296 297 297 294 292 293 293 295 295 295 294 294 294 296 297 297 296 294 294
247 250 250 248 246 243 243 243 242 243 247 252 257 262 270 276 280 282 286 290 295 297 295 295 296 295 298 299 298 294 293 292 294 294 294 294 294 294 295 295 295 295 295 294
247 250 252 250 248 246 245 245 246 247 249 251 256 261 265 272 275 278 282 285 288 291 292 294 293 293 295 295 294 294 293 292 292 292 292 292 293 293 294 294 294 294 293 294
245 248 252 253 252 250 246 246 249 250 252 253 257 262 265 271 275 277 279 281 283 285 289 291 292 292 293 293 292 292 290 290 290 291 292 291 292 292 292 292 293 293 293 293
246 247 249 251 252 251 249 249 251 254 255 257 259 263 266 270 273 275 277 279 281 283 287 289 289 291 290 290 289 290 290 289 289 289 290 290 291 291 291 292 292 293 292 292
244 245 247 249 251 252 250 250 252 254 258 259 261 264 266 266 270 273 276 276 278 280 285 287 291 292 291 290 288 289 289 289 289 289 289 289 289 291 292 292 293 293 293 292
246 245 245 248 248 250 253 252 253 256 259 260 261 263 265 267 269 273 275 277 278 281 284 286 287 289 290 289 288 288 287 288 288 289 290 290 290 291 291 292 294 294 295 295
247 247 248 249 251 253 253 255 256 256 259 261 262 264 264 267 269 272 276 279 280 281 281 282 283 285 286 286 286 285 286 287 288 289 291 291 290 290 291 293 294 295 296 296
246 248 248 250 251 253 253 254 256 256 258 260 262 265 266 268 271 273 275 277 278 279 281 281 281 282 282 283 287 286 286 286 287 289 291 292 291 291 292 294 294 296 297 297
246 247 248 250 252 253 255 256 257 259 259 259 260 264 267 270 273 274 275 275 277 278 278 280 282 282 281 282 284 284 284 286 287 289 290 290 291 292 292 294 295 296 297 297
246 248 249 249 251 252 254 255 258 259 260 260 261 262 265 268 271 272 273 275 276 276 276 278 280 281 280 279 282 283 285 286 287 288 290 290 291 292 293 294 295 296 296 295
Height
5912 5913 5914 5915 5915 5916 5916 5916 5916 5917 5916 5915 5915 5915 5915 5914 5913 5912 5911 5910 5909 5908 5906 5905 5904 5903 5901 5900 5898 5897 5896 5894 5893 5892 5891 5890 5889 5887 5886 5885 5884 5883 5882 5881
5910 5911 5913 5914 5914 5914 5915 5915 5916 5916 5916 5915 5914 5914 5914 5914 5912 5910 5910 5909 5908 5907 5907 5906 5904 5903 5901 5900 5899 5897 5896 5894 5893 5892 5891 5890 5889 5888 5887 5885 5884 5883 5882 5880
5908 5910 5910 5911 5912 5913 5913 5914 5915 5915 5915 5914 5914 5913 5913 5912 5911 5910 5909 5908 5907 5907 5906 5906 5904 5903 5901 5900 5898 5897 5895 5894 5893 5892 5890 5889 5888 5887 5886 5885 5884 5882 5881 5880
5905 5907 5908 5908 5909 5911 5912 5913 5913 5913 5913 5912 5912 5912 5912 5911 5909 5909 5908 5907 5906 5905 5905 5905 5903 5902 5901 5899 5898 5896 5895 5893 5892 5891 5890 5889 5887 5886 5885 5884 5883 5882 5880 5879
5903 5904 5905 5906 5908 5909 5910 5910 5911 5911 5911 5911 5911 5910 5911 5909 5909 5908 5907 5906 5905 5905 5904 5903 5902 5901 5900 5898 5897 5895 5894 5893 5891 5890 5889 5888 5886 5885 5884 5882 5881 5880 5879 5878
5901 5902 5903 5904 5906 5907 5907 5908 5909 5909 5909 5910 5909 5909 5909 5908 5907 5907 5906 5905 5904 5904 5903 5902 5901 5900 5898 5897 5896 5894 5893 5892 5890 5889 5888 5886 5885 5883 5882 5881 5880 5878 5877 5876
5898 5900 5901 5902 5903 5905 5905 5907 5907 5907 5907 5908 5907 5906 5907 5906 5905 5905 5905 5904 5903 5902 5901 5900 5899 5898 5897 5895 5894 5893 5891 5890 5889 5887 5886 5884 5883 5881 5880 5879 5878 5876 5875 5874
5894 5897 5898 5899 5901 5902 5903 5904 5905 5905 5905 5905 5904 5904 5905 5904 5903 5903 5902 5902 5901 5900 5899 5898 5897 5896 5895 5894 5892 5891 5889 5888 5887 5885 5884 5882 5881 5879 5878 5876 5875 5874 5873 5871
5891 5894 5896 5897 5898 5899 5900 5901 5902 5902 5902 5901 5901 5902 5902 5901 5901 5901 5900 5899 5898 5897 5897 5896 5895 5893 5892 5891 5890 5888 5887 5886 5885 5883 5881 5880 5878 5876 5875 5873 5872 5871 5869 5868
5888 5890 5893 5894 5895 5896 5897 5898 5899 5899 5899 5898 5898 5898 5899 5898 5898 5897 5897 5896 5896 5894 5894 5893 5892 5891 5890 5889 5888 5886 5885 5883 5882 5880 5878 5877 5875 5873 5872 5870 5869 5868 5866 5864
5884 5887 5889 5890 5891 5893 5894 5895 5895 5895 5895 5896 5895 5898 5897 5896 5895 5894 5894 5894 5893 5891 5891 5890 5889 5888 5887 5885 5884 5883 5882 5880 5879 5877 5875 5873 5871 5870 5868 5867 5866 5864 5862 5860
5880 5882 5884 5887 5889 5889 5890 5891 5892 5892 5892 5892 5892 5895 5892 5892 5891 5891 5890 5889 5888 5888 5887 5887 5885 5884 5883 5882 5881 5879 5878 5877 5875 5873 5871 5869 5867 5866 5864 5863 5861 5860 5858 5856
5876 5878 5880 5883 5886 5885 5885 5886 5887 5888 5888 5887 5887 5890 5888 5888 5887 5887 5886 5886 5885 5885 5884 5883 5882 5881 5880 5878 5877 5876 5874 5873 5871 5869 5867 5865 5864 5862 5860 5858 5857 5855 5853 5851
5871 5873 5875 5878 5879 5880 5881 5882 5882 5882 5882 5883 5883 5884 5883 5883 5883 5882 5882 5882 5882 5881 5880 5879 5878 5877 5875 5874 5873 5871 5870 5868 5866 5865 5863 5861 5859 5857 5855 5854 5852 5850 5848 5846
5865 5867 5869 5871 5873 5874 5875 5876 5877 5878 5878 5878 5878 5878 5878 5879 5878 5878 5877 5877 5876 5876 5875 5874 5873 5872 5870 5869 5868 5866 5864 5863 5861 5859 5858 5856 5854 5852 5850 5848 5846 5844 5842 5840
5859 5861 5863 5865 5867 5868 5869 5871 5871 5872 5873 5873 5873 5874 5874 5873 5873 5873 5872 5872 5871 5871 5870 5869 5868 5867 5865 5864 5862 5861 5859 5857 5855 5854 5852 5850 5848 5846 5844 5842 5840 5838 5836 5834
5854 5855 5857 5858 5860 5861 5863 5864 5865 5866 5867 5868 5868 5870 5869 5869 5868 5868 5868 5867 5866 5865 5865 5864 5863 5861 5860 5859 5857 5855 5853 5851 5849 5848 5846 5844 5842 5840 5838 5836 5834 5832 5829 5827
5847 5848 5849 5851 5853 5854 5859 5858 5859 5860 5861 5862 5862 5863 5863 5863 5863 5862 5862 5862 5861 5859 5858 5857 5856 5855 5854 5852 5851 5849 5847 5845 5843 5842 5840 5838 5836 5834 5832 5830 5827 5825 5823 5821
5840 5841 5842 5843 5845 5846 5850 5851 5851 5852 5854 5855 5856 5856 5856 5856 5856 5856 5855 5855 5854 5853 5852 5851 5850 5848 5847 5846 5844 5843 5841 5839 5837 5835 5833 5831 5829 5827 5824 5822 5820 5818 5815 5813
5832 5833 5835 5836 5837 5838 5843 5844 5844 5846 5846 5848 5849 5849 5849 5850 5850 5850 5849 5848 5847 5846 5846 5845 5843 5841 5840 5838 5837 5835 5834 5832 5830 5828 5826 5823 5821 5819 5816 5814 5812 5809 5807 5804
5824 5825 5826 5828 5829 5830 5834 5836 5838 5839 5840 5841 5842 5842 5842 5843 5843 5843 5842 5842 5841 5840 5839 5837 5836 5835 5833 5831 5829 5827 5826 5824 5822 5820 5818 5815 5813 5811 5808 5806 5803 5801 5798 5796
5816 5818 5819 5820 5821 5825 5827 5828 5831 5831 5832 5833 5834 5835 5835 5835 5835 5835 5835 5834 5833 5833 5831 5830 5828 5827 5825 5823 5822 5820 5818 5816 5814 5812 5809 5807 5805 5802 5800 5798 5795 5792 5789 5787
5808 5810 5811 5813 5816 5817 5819 5821 5822 5823 5824 5825 5826 5827 5827 5827 5827 5827 5826 5826 5825 5824 5823 5822 5820 5819 5817 5815 5814 5812 5810 5808 5806 5804 5801 5799 5796 5794 5791 5789 5786 5784 5781 5778
5800 5801 5803 5804 5806 5807 5809 5811 5813 5815 5816 5818 5818 5819 5819 5819 5819 5818 5818 5817 5816 5815 5814 5813 5812 5810 5809 5808 5806 5804 5802 5799 5797 5795 5793 5790 5788 5785 5783 5780 5778 5775 5772 5769
5791 5793 5795 5796 5798 5799 5801 5803 5805 5807 5808 5809 5809 5810 5810 5810 5810 5809 5809 5808 5807 5807 5805 5804 5803 5801 5800 5799 5797 5795 5793 5791 5789 5787 5784 5782 5779 5777 5774 5772 5769 5766 5763 5760
5783 5785 5787 5788 5790 5791 5793 5795 5796 5798 5799 5799 5800 5801 5801 5800 5800 5800 5799 5799 5798 5797 5796 5794 5793 5792 5791 5790 5788 5787 5785 5782 5780 5778 5776 5773 5771 5768 5766 5763 5760 5756 5754 5751